COSMOS 1275 DEB, 42105

Orbit data source: Space-Track

COSMOS 1275 DEB, 42105 is space debris in LEO originally from a launch on Thu, 04 Jun 1981 UTC launched from the Plesetsk Missile And Space Complex (PKMTR). Debris objects in space refer to the collection of defunct objects orbiting the Earth. Examples of debris include non-operational satellites, rocket bodies, and fragments generated from explosions, collisions, or faulty payload assembly.

Loading next visibility...
Identifier
42105, 1981-053PR
Orbit
LEO
Country
Flag of CISCIS
Related business
Manufacturer
Unknown
Mission
Spacecraft
Bus & Motor
Unknown
Mass
Unknown
Launch date (UTC)
1981-06-04 (45 years ago)
Launch vehicle
Unknown
Launch site
Plesetsk Missile And Space Complex (PKMTR)
Object type
Payload
Rocket body
Debris
Shape & HBR
Unknown shape, 1.1 m
Radar Cross Section
Small (<0.1 m²)

Expand to show TLE details & history
Last TLE update: 2 weeks ago

TLE from 2 weeks ago
0 COSMOS 1275 DEB
1 42105U 81053PR  26208.21449285  .00000907  00000-0  10357-2 0  9996
2 42105  82.9725   4.5074 0172597 293.2176 185.9145 13.62859864270327
Epoch: 2026-07-27T05:08Z
TLE epoch observation values (Epoch: 2026-07-27T05:08:52.182Z)
Latitude
60.38831°
Longitude
149.92646°
Altitude
1,162.748 km
Speed
7.215 km/s
True Right ascension
11h 28m 10s
True Declination
60° 14' 54"
Sunlit
Object was in daylight at epoch
Visualization orbit readout
Latitude
Unknown
Longitude
Unknown
Altitude
Unknown
Speed
Unknown
Apparent Right ascension
Unknown
Apparent Declination
Unknown
Sunlit
N/A
Visualization observer readout
Local Sidereal Time
21:05:20
Azimuth
Unknown
Elevation
Unknown
Doppler factor
Unknown
Orbital elements
Apogee altitude
1,150.213 km
Perigee altitude
894.748 km
Semi-major axis
7,400.617 km
Eccentricity
0.01726
Inclination
82.9725°
RAAN
4.5074°
Arg. of periapsis
293.2176°
True anomaly
185.71498°
Mean anomaly
185.9145°
Eccentric anomaly
185.81432°
Mean motion
3.40911 °/min
Orbital period
105.6 mins
BSTAR
0.0010357
Loading maneuver chart data...
Computing Atmospheric mass density...

Documentation

Showing up to 5 results
|